CZ-6 R/B

Satellite information

Favourite Embed

Satellite Type and Status

ROCKET BODYIN ORBIT

Key statistics

Satellite CZ-6 R/B at a glance.

Uptime

2004

Days in orbit

Revolutions

≈ 14.2

Per day

Orbit

LEO

Low Earth Orbit

Inclination

45.0

Latest

Satellite identification and parameters

Extended collection of information and parameters for CZ-6 R/B.

Object identification

Identified? True

Debris? False

Object name: CZ-6 R/B

International designator: 2019-076F

Object number (NORAD): 44784

Object ID (CCSDS): 44784

Country: PEOPLES REPUBLIC OF CHINA (PRC)

Current information (Y/N): Y

RCS size: LARGE

Orbital parameters

Period: 101.554 minutes

Inclination: 45.0069 deg

SMA: 7210.387 km

Apoapsis: 895.477 km

Periapsis: 769.027 km

RAAN: 307.0131 deg

Eccentricy: 0.0087686

Argument of periapsis: 10.6819 deg

Mean anomaly: 349.586 deg

Mean motion: 14.179629 rev/day

Mean motion (dot): 0.00000115 rev/day2

B* drag term: 0.00011737 1/REarth

Two-line elements (TLE)

Creation date: May 9, 2025, 2:46 a.m.

Reference frame: TEME

Reference center: EARTH

Epoch: May 8, 2025, 9:05 p.m. UTC

TLE line 0: 0 CZ-6 R/B

TLE line 1: 1 44784U 19076F 25128.87854682 .00000115 00000-0 11737-3 0 9995

TLE line 2: 2 44784 45.0069 307.0131 0087686 10.6819 349.5860 14.17962900284309

Live tracking on map

Real-time ground track for satellite CZ-6 R/B.

In-orbit conjunctions

A list of the most updated potential collisions computed for object CZ-6 R/B.

Target Orbit TCA Probability of collision Miss distance Type
COSMOS 2237 LEO 2024-09-24 17:19:35 0.007120083 194.0 (m) PAYLOAD
CZ-6A DEB LEO 2024-09-21 02:57:55 0.00017291 608.0 (m) DEBRIS
DMSP 5D-2 F13 DEB SSO 2024-09-02 16:49:46 0.0001689812 585.0 (m) DEBRIS
FENGYUN 1C DEB SSO 2024-07-10 10:33:53 0.0001051161 764.0 (m) DEBRIS
COSMOS 2251 DEB LEO 2024-05-28 17:07:00 0.0004663977 79.0 (m) DEBRIS

Associated space launch

Ningxia 1 is a constellation of remote sensing satellites developed by Dongfanghong Satellite Co., Ltd.

CZ-6 R/B was lifted into orbit during the mission ‘Long March 6 | Ningxia 1 (x5)’, on board a Long March 6 space rocket.

The launch took place on Nov. 13, 2019, 6:35 a.m. from Launch Complex 16.

For more information about the launch, click the button.

Launch to space Long March 6 | Ningxia 1 (x5)
Long March 6 | Ningxia 1 (x5)

Agency: N/A

Status: Launch Successful

Launch date: Nov. 13, 2019, 6:35 a.m. UTC

Rocket: Long March 6

Launch pad: Launch Complex 16

Location: Taiyuan Satellite Launch Center, People's Republic of China

...

Latest news about this satellite

News about space launch
Long March 6 lofts five Ningxia-1 satellites

News about space launch
Two Chinese satellite launchers lift off three hours apart


Newsletter sign-up

Weekly statistics, charts and insights to help you stay on top of the space industry.